STARLINK-32246 (60432 NORAD) Tracking and Keplerian Element Data

This shows tracking and keplerian element data for the satellite.

Feedback or suggestion? Click here.




ElementValue
Catalog60432
NameSTARLINK-32246
Epoch Orbit1078
Epoch Day286.80847018
Epoch Year2024
RAAN79.486
Inclination53.1622
Eccentricity8E-05
Argument of Perigee134.8616
Mean Anonmoly225.245
Mean Motion15.30195534
Decay Rate-1.777E-05
L11 60432U 24144H 24286.80847018 -.00001777 00000+0 -47898-4 0 9991
L22 60432 53.1622 79.4860 0000800 134.8616 225.2450 15.30195534 10789



Live tracking and technical data element details for STARLINK-32246 (NORAD 60432). STARLINK-32246 can be tracked NOW for your location showing map with azimuth and elevation plus other details from your city location.







IsCatalogInMostPopularTable: catalog: 60432, numindb: 8
Update: records affected: 1



GetName: 60432 STARLINK-32246

Hit Count: updated at: Wed, 04 Dec 2024 18:38:18 GMT